[[{"header":{"parameterUnit":"m.s-1","parameterCategory":1,"la1":30.2991,"la2":30.254,"lo1":-89.0895,"lo2":-89.0444,"dy":0.0017,"dx":0.0017,"nx":28,"ny":28,"refTime":"2025-03-08T03:00:00:Z","depth":0,"parameterNumber":2,"parameterNumberName":"U-component_of_WINDS"},"data":[0,0,0,0,0,0,0,0,0,0,0,0,0,0,0,0,0,0,0,0,0,0,0,0,0,0,0,0,0,0,0,0,0,0,0,0,0,0,0,0,0,0,0,0,0,0,0,0,0,0,0,0,0,0,0,0,0,0,-2.1194,-2.1193,0,-2.1128,-2.1127,-2.1127,-2.1069,-2.1068,-2.1068,-2.1067,-2.1001,-2.1,-2.0999,0,0,0,0,0,0,0,0,0,0,0,0,0,-2.1272,-2.1271,-2.1194,-2.1193,-2.1192,-2.1128,-2.1127,-2.1126,-2.1069,-2.1068,-2.1068,-2.1067,-2.1002,-2.1,-2.0999,0,0,0,0,0,0,0,0,0,0,0,0,0,-2.1225,-2.127,-2.1194,-2.1156,-2.1152,-2.1128,-2.1127,-2.1126,-2.1069,-2.1068,-2.1067,-2.1066,-2.1002,-2.1001,-2.0999,-2.1008,0,0,-2.0994,-2.0993,0,0,0,0,0,0,0,0,-2.1228,-2.1223,-2.1162,-2.1159,-2.1154,-2.1106,-2.1131,-2.1087,-2.107,-2.1101,-2.1067,-2.1066,-2.1037,-2.1032,-2.1022,-2.1005,-2.1003,-2.0994,-2.0993,-2.0992,-2.0991,0,0,0,0,0,0,0,-2.1231,-2.1225,-2.1168,-2.1162,-2.1156,-2.1143,-2.1135,-2.1122,-2.1075,-2.1098,-2.1094,-2.1086,-2.1035,-2.1024,-2.102,-2.1002,-2.0994,-2.0992,-2.0991,-2.099,-2.0991,-2.0991,0,0,0,0,0,0,-2.124,-2.1228,-2.117,-2.1166,-2.1189,-2.1142,-2.1134,-2.1122,-2.1075,-2.1067,-2.1087,-2.1084,-2.1027,-2.1022,-2.1018,-2.1027,-2.0992,-2.099,-2.0989,-2.099,-2.0991,-2.0992,0,0,0,0,0,0,-2.1242,-2.1236,-2.1173,-2.1196,-2.1187,-2.1142,-2.113,-2.1121,-2.1111,-2.1067,-2.1059,-2.1085,-2.1026,-2.102,-2.1011,-2.1024,-2.0989,-2.0988,-2.0988,-2.099,-2.0991,-2.1045,0,0,0,0,0,0,-2.1245,-2.1237,-2.1239,-2.1196,-2.1186,-2.1167,-2.113,-2.1121,-2.1108,-2.1103,-2.1063,-2.1056,-2.1025,-2.1014,-2.101,-2.1021,-2.0987,-2.0987,-2.0989,-2.0991,-2.1042,-2.1048,-2.1054,0,0,0,0,0,-2.1248,-2.1257,-2.124,-2.1233,-2.1188,-2.1168,-2.1162,-2.1126,-2.1109,-2.1112,-2.1084,-2.1057,-2.1023,-2.1014,-2.1008,-2.1019,-2.0986,-2.0988,-2.0991,-2.1039,-2.1047,-2.1053,0,0,0,0,0,0,-2.1303,-2.1251,-2.1231,-2.1227,-2.1202,-2.1158,-2.116,-2.1135,-2.1115,-2.1112,-2.1069,-2.106,-2.1057,-2.1037,-2.1027,-2.1027,-2.1001,-2.1002,-2.104,-2.1047,-2.1052,-2.1058,-2.0985,0,0,0,0,0,-2.1315,-2.1302,-2.1257,-2.1258,-2.1246,-2.1206,-2.1196,-2.117,-2.1143,-2.1133,-2.1104,-2.108,-2.1063,-2.1054,-2.1036,-2.1038,-2.103,-2.1043,-2.1049,-2.1054,-2.1056,-2.1057,-2.1063,-2.0999,-2.0999,-2.0999,0,0,-2.1339,-2.1309,-2.1304,-2.1268,-2.1246,-2.1235,-2.1197,-2.1187,-2.1178,-2.1131,-2.1121,-2.11,-2.1069,-2.1067,-2.1064,-2.105,-2.1072,-2.1057,-2.1061,-2.1061,-2.106,-2.1066,-2.1072,-2.1001,-2.1001,-2.1,0,0,-2.1378,-2.1353,-2.1352,-2.133,-2.1297,-2.127,-2.127,-2.123,-2.1213,-2.1202,-2.1167,-2.1157,-2.113,-2.111,-2.1096,-2.1128,-2.1103,-2.1124,-2.1154,-2.1156,-2.1161,-2.1165,-2.1178,-2.1183,-2.1125,-2.1126,-2.1126,0,-2.1413,-2.1393,-2.1354,-2.1346,-2.1332,-2.1288,-2.1287,-2.1268,-2.1232,-2.1224,-2.1208,-2.1174,-2.115,-2.1143,-2.1151,-2.114,-2.114,-2.1129,-2.1163,-2.1167,-2.1171,-2.1182,-2.1187,-2.1128,-2.1128,-2.1128,-2.1128,0,-2.1438,-2.1426,-2.1428,-2.1394,-2.138,-2.1376,-2.1336,-2.1327,-2.1303,-2.1278,-2.1268,-2.1238,-2.1215,-2.1211,-2.1187,-2.1201,-2.1193,-2.1171,-2.1145,-2.118,-2.1191,-2.1195,-2.1133,-2.1132,-2.1131,-2.113,0,0,-2.1511,-2.1455,-2.1457,-2.1441,-2.1401,-2.1391,-2.1385,-2.1361,-2.1355,-2.1331,-2.1326,-2.1304,-2.1284,-2.1268,-2.1242,-2.1243,-2.1272,-2.1221,-2.122,-2.1233,-2.1287,-2.1305,-2.131,-2.1254,-2.1255,-2.1256,-2.129,0,-2.1545,-2.153,-2.1495,-2.1492,-2.1481,-2.1439,-2.1434,-2.1409,-2.1386,-2.1373,-2.1347,-2.1333,-2.1306,-2.1297,-2.1296,-2.1269,-2.1283,-2.1266,-2.125,-2.125,-2.1261,-2.1315,-2.1334,-2.1368,-2.1293,-2.1294,-2.1294,0,-2.1582,-2.1561,-2.1557,-2.1518,-2.1512,-2.1508,-2.1484,-2.1472,-2.1444,-2.1427,-2.141,-2.1381,-2.1373,-2.1348,-2.1337,-2.1326,-2.1318,-2.1304,-2.1304,-2.1303,-2.1276,-2.1317,-2.1377,-2.1383,-2.13,-2.13,-2.1299,0,-2.1638,-2.1608,-2.1602,-2.1589,-2.1544,-2.1542,-2.1524,-2.1494,-2.1483,-2.1462,-2.1454,-2.1433,-2.1422,-2.1406,-2.1373,-2.1357,-2.1367,-2.1338,-2.1353,-2.1354,-2.1358,-2.1359,-2.142,-2.135,-2.135,-2.135,-2.135,0,-2.168,-2.168,-2.1626,-2.1623,-2.1621,-2.1581,-2.1581,-2.1558,-2.1533,-2.1525,-2.1487,-2.1481,-2.1436,-2.1425,-2.1398,-2.1394,-2.1389,-2.1376,-2.1369,-2.138,-2.1382,-2.1375,-2.1373,-2.1352,-2.1351,-2.1351,-2.1351,0,-2.1743,-2.1707,-2.1698,-2.1655,-2.1645,-2.1646,-2.161,-2.1606,-2.1579,-2.157,-2.1566,-2.1525,-2.151,-2.1474,-2.1449,-2.1432,-2.1435,-2.1422,-2.1445,-2.1441,-2.1459,-2.1459,-2.1519,-2.1526,-2.1451,-2.1451,-2.1452,0,-2.1773,-2.1771,-2.1729,-2.1721,-2.1703,-2.169,-2.1678,-2.1638,-2.1628,-2.1596,-2.1596,-2.1577,-2.1561,-2.1538,-2.1507,-2.1489,-2.1475,-2.1498,-2.1473,-2.1484,-2.1478,-2.1479,-2.148,-2.1504,-2.1505,-2.1506,-2.1507,0,-2.1831,-2.1813,-2.1797,-2.1775,-2.1761,-2.1742,-2.1721,-2.1716,-2.1671,-2.1661,-2.1645,-2.1632,-2.1607,-2.159,-2.1566,-2.1548,-2.1521,-2.1515,-2.1518,-2.153,-2.1544,-2.1538,-2.1462,-2.1514,-2.1513,-2.1513,-2.1512,-2.1512,-2.1879,-2.1876,-2.1846,-2.183,-2.1809,-2.179,-2.1785,-2.1757,-2.1743,-2.1719,-2.1696,-2.1683,-2.1655,-2.1621,-2.1604,-2.1594,-2.158,-2.1583,-2.1585,-2.1587,-2.1592,-2.1544,-2.1589,-2.1589,-2.1589,-2.1588,-2.1588,0,-2.1936,-2.1915,-2.19,-2.1871,-2.1859,-2.1833,-2.1808,-2.18,-2.1788,-2.1764,-2.1748,-2.1731,-2.1714,-2.1681,-2.1662,-2.166,-2.1647,-2.1656,-2.1657,-2.1653,-2.1605,-2.1605,-2.1667,-2.1667,-2.1667,-2.1667,-2.1667,-2.1667,-2.1965,-2.196,-2.1938,-2.1923,-2.1901,-2.1887,-2.1876,-2.1859,-2.184,-2.1821,-2.1807,-2.1785,-2.1758,-2.1737,-2.1721,-2.1711,-2.1707,-2.1721,-2.1708,-2.1664,-2.1657,-2.165,-2.165,-2.172,-2.172,-2.1757,-2.1758,-2.1758]},{"header":{"parameterUnit":"m.s-1","parameterCategory":1,"la1":30.2991,"la2":30.254,"lo1":-89.0895,"lo2":-89.0444,"dy":0.0017,"dx":0.0017,"nx":28,"ny":28,"refTime":"2025-03-08T03:00:00:Z","depth":0,"parameterNumber":3,"parameterNumberName":"V-component_of_WINDS"},"data":[0,0,0,0,0,0,0,0,0,0,0,0,0,0,0,0,0,0,0,0,0,0,0,0,0,0,0,0,0,0,0,0,0,0,0,0,0,0,0,0,0,0,0,0,0,0,0,0,0,0,0,0,0,0,0,0,0,0,-0.7233,-0.7232,0,-0.718,-0.718,-0.7179,-0.7147,-0.7146,-0.7146,-0.7146,-0.7092,-0.7091,-0.709,0,0,0,0,0,0,0,0,0,0,0,0,0,-0.7306,-0.7305,-0.7233,-0.7232,-0.7232,-0.718,-0.718,-0.7179,-0.7147,-0.7146,-0.7146,-0.7146,-0.7093,-0.7091,-0.709,0,0,0,0,0,0,0,0,0,0,0,0,0,-0.7266,-0.7304,-0.7233,-0.7209,-0.7207,-0.718,-0.718,-0.7179,-0.7147,-0.7146,-0.7146,-0.7146,-0.7093,-0.7091,-0.7089,-0.7083,0,0,-0.7084,-0.7083,0,0,0,0,0,0,0,0,-0.7268,-0.7263,-0.7214,-0.7211,-0.7208,-0.717,-0.7185,-0.7146,-0.7147,-0.7169,-0.7146,-0.7146,-0.7118,-0.7114,-0.7105,-0.708,-0.7078,-0.7083,-0.7082,-0.7081,-0.7081,0,0,0,0,0,0,0,-0.7271,-0.7265,-0.7212,-0.7213,-0.7209,-0.7201,-0.7195,-0.7178,-0.7146,-0.7167,-0.7165,-0.7159,-0.7117,-0.7107,-0.7103,-0.7077,-0.7083,-0.7082,-0.7081,-0.708,-0.7044,-0.7044,0,0,0,0,0,0,-0.7277,-0.7268,-0.7214,-0.721,-0.7238,-0.72,-0.7194,-0.7182,-0.7146,-0.714,-0.7159,-0.7158,-0.711,-0.7106,-0.7101,-0.7091,-0.7081,-0.708,-0.7078,-0.7044,-0.7044,-0.7045,0,0,0,0,0,0,-0.7279,-0.7273,-0.7216,-0.7238,-0.7231,-0.7199,-0.7187,-0.7181,-0.7171,-0.714,-0.7134,-0.7155,-0.711,-0.7104,-0.7088,-0.7089,-0.7079,-0.7077,-0.7044,-0.7044,-0.7044,-0.7071,0,0,0,0,0,0,-0.7281,-0.7274,-0.7271,-0.7239,-0.7229,-0.7203,-0.7187,-0.718,-0.7168,-0.7166,-0.7134,-0.7129,-0.7109,-0.7091,-0.7086,-0.7086,-0.7075,-0.7044,-0.7044,-0.7044,-0.707,-0.7073,-0.7075,0,0,0,0,0,-0.7284,-0.728,-0.7271,-0.7265,-0.7225,-0.7203,-0.7198,-0.7175,-0.7168,-0.7165,-0.7145,-0.713,-0.709,-0.7089,-0.7083,-0.7083,-0.7043,-0.7044,-0.7044,-0.7069,-0.7072,-0.7075,0,0,0,0,0,0,-0.7314,-0.7276,-0.7265,-0.7251,-0.723,-0.7198,-0.7193,-0.7179,-0.716,-0.7158,-0.7131,-0.7124,-0.711,-0.7095,-0.7095,-0.7075,-0.7065,-0.7064,-0.7086,-0.7088,-0.709,-0.7095,-0.7074,0,0,0,0,0,-0.7319,-0.7304,-0.7271,-0.7262,-0.7253,-0.7225,-0.7214,-0.7198,-0.7176,-0.7168,-0.7146,-0.7125,-0.7108,-0.7097,-0.7079,-0.7068,-0.7061,-0.7065,-0.7067,-0.7069,-0.7069,-0.7062,-0.7064,-0.7046,-0.7046,-0.7046,0,0,-0.7329,-0.7306,-0.7298,-0.7268,-0.725,-0.7236,-0.7218,-0.7203,-0.7192,-0.7165,-0.7149,-0.7132,-0.7107,-0.7093,-0.7086,-0.708,-0.7072,-0.7069,-0.7071,-0.707,-0.7063,-0.7064,-0.7066,-0.7046,-0.7046,-0.7046,0,0,-0.734,-0.7321,-0.7311,-0.7294,-0.7268,-0.7249,-0.7247,-0.7216,-0.7204,-0.7187,-0.7167,-0.7153,-0.7124,-0.7107,-0.7094,-0.7099,-0.7085,-0.7094,-0.7106,-0.7099,-0.7101,-0.7102,-0.7104,-0.7105,-0.7094,-0.7094,-0.7094,0,-0.7355,-0.7333,-0.7308,-0.7295,-0.7282,-0.7257,-0.7247,-0.7231,-0.7201,-0.7193,-0.7186,-0.7149,-0.713,-0.7112,-0.7113,-0.7104,-0.7101,-0.7098,-0.7102,-0.7103,-0.7104,-0.7106,-0.7107,-0.7095,-0.7095,-0.7095,-0.7095,0,-0.7354,-0.7338,-0.7334,-0.7305,-0.7291,-0.728,-0.7254,-0.7243,-0.7228,-0.721,-0.7193,-0.717,-0.7147,-0.7141,-0.7127,-0.7121,-0.7118,-0.7108,-0.7097,-0.7107,-0.7109,-0.7109,-0.7097,-0.7097,-0.7096,-0.7096,0,0,-0.7382,-0.734,-0.7339,-0.7326,-0.7295,-0.7282,-0.727,-0.7247,-0.7239,-0.7218,-0.7207,-0.7183,-0.7173,-0.7159,-0.7142,-0.7136,-0.7142,-0.7126,-0.7125,-0.713,-0.7135,-0.7144,-0.7145,-0.7132,-0.7132,-0.7132,-0.7137,0,-0.7389,-0.7366,-0.7343,-0.7327,-0.7313,-0.7289,-0.7278,-0.7258,-0.7241,-0.7226,-0.7207,-0.7191,-0.7178,-0.7169,-0.7163,-0.7143,-0.7143,-0.7142,-0.7122,-0.7121,-0.713,-0.7146,-0.7155,-0.7162,-0.7138,-0.7138,-0.7138,0,-0.7394,-0.7375,-0.7358,-0.7329,-0.7322,-0.7313,-0.7291,-0.7277,-0.7254,-0.7241,-0.7226,-0.7208,-0.7194,-0.7184,-0.7164,-0.7164,-0.7154,-0.7143,-0.7143,-0.7141,-0.7131,-0.7145,-0.7163,-0.7165,-0.7138,-0.7138,-0.7138,0,-0.7418,-0.7388,-0.7374,-0.7363,-0.7328,-0.7322,-0.7308,-0.7284,-0.7272,-0.7253,-0.7245,-0.7224,-0.7213,-0.7197,-0.7174,-0.7169,-0.7157,-0.7145,-0.7147,-0.7148,-0.7146,-0.7147,-0.7164,-0.7139,-0.7139,-0.7139,-0.7139,0,-0.7429,-0.742,-0.7384,-0.7376,-0.7365,-0.7339,-0.7328,-0.7311,-0.7291,-0.7279,-0.7256,-0.7245,-0.7215,-0.7201,-0.7183,-0.7169,-0.7164,-0.7154,-0.715,-0.7157,-0.7158,-0.7151,-0.715,-0.7139,-0.7139,-0.7139,-0.7139,0,-0.7454,-0.7429,-0.7413,-0.7381,-0.7373,-0.7366,-0.7339,-0.733,-0.7312,-0.7297,-0.7292,-0.7263,-0.7245,-0.722,-0.7194,-0.7182,-0.7171,-0.7164,-0.7179,-0.7177,-0.718,-0.7181,-0.7194,-0.7195,-0.7169,-0.7169,-0.7169,0,-0.7462,-0.7455,-0.7422,-0.7413,-0.7399,-0.7383,-0.7371,-0.7345,-0.7333,-0.7306,-0.7301,-0.7281,-0.7263,-0.7236,-0.7212,-0.7193,-0.7185,-0.7191,-0.7182,-0.7189,-0.7186,-0.7187,-0.7186,-0.7193,-0.7194,-0.7194,-0.7194,0,-0.7481,-0.7469,-0.7453,-0.7432,-0.7418,-0.74,-0.7382,-0.7375,-0.7345,-0.7333,-0.7314,-0.7301,-0.7274,-0.7255,-0.7232,-0.7217,-0.7201,-0.7197,-0.7197,-0.7204,-0.7214,-0.721,-0.7186,-0.7197,-0.7197,-0.7197,-0.7197,-0.7196,-0.7499,-0.7491,-0.7467,-0.7449,-0.7432,-0.7415,-0.7406,-0.7386,-0.737,-0.7346,-0.7332,-0.7314,-0.729,-0.7258,-0.7244,-0.7229,-0.7223,-0.7222,-0.7222,-0.7222,-0.7225,-0.7216,-0.7225,-0.7225,-0.7225,-0.7224,-0.7224,0,-0.7517,-0.75,-0.7484,-0.7459,-0.7445,-0.743,-0.7409,-0.7398,-0.7383,-0.7362,-0.7346,-0.7325,-0.7306,-0.7281,-0.726,-0.7254,-0.7246,-0.7249,-0.725,-0.7247,-0.7231,-0.7234,-0.7256,-0.7256,-0.7256,-0.7256,-0.7256,-0.7256,-0.7525,-0.7511,-0.7497,-0.7475,-0.7458,-0.744,-0.7429,-0.7413,-0.7397,-0.7374,-0.7359,-0.7342,-0.732,-0.7298,-0.728,-0.7273,-0.7267,-0.7273,-0.7264,-0.7251,-0.7248,-0.7245,-0.7248,-0.7272,-0.7272,-0.7281,-0.7281,-0.7281]}]]